DEBAB EDRY-EDFM

Flight info

Callsign DEBAB
Flight time 0h 11m
Altitude
Route
Aircraft SR22

Departure

Time 2026-05-08 20:12
Airport Speyer Airfield (EDRY)

Arrival

Time 2026-05-08 20:23
Airport Mannheim-City Airport (EDFM)
Time Latitude Longitude Altitude Speed Heading
2026-05-08 20:12 49.38377 8.43682 1709 ft 143 kts 15°
2026-05-08 20:12 49.39209 8.44312 1712 ft 113 kts 53°
2026-05-08 20:13 49.39878 8.44798 1598 ft 115 kts 12°
2026-05-08 20:13 49.40686 8.45104 1489 ft 121 kts 12°
2026-05-08 20:13 49.41512 8.45366 1461 ft 119 kts 10°
2026-05-08 20:13 49.42313 8.45647 1417 ft 120 kts 11°
2026-05-08 20:14 49.43137 8.45939 1376 ft 124 kts 10°
2026-05-08 20:14 49.43960 8.46198 1316 ft 120 kts 10°
2026-05-08 20:14 49.44755 8.46413 1268 ft 113 kts
2026-05-08 20:14 49.45534 8.46577 1143 ft 113 kts
2026-05-08 20:15 49.46296 8.46758 1047 ft 111 kts 13°
2026-05-08 20:15 49.46937 8.47305 973 ft 104 kts 39°
2026-05-08 20:15 49.47368 8.48158 785 ft 99 kts 71°
2026-05-08 20:15 49.47353 8.49183 587 ft 99 kts 94°
2026-05-08 20:16 49.47312 8.50247 376 ft 99 kts 94°
2026-05-08 20:16 49.47281 8.51280 336 ft 102 kts 93°
2026-05-08 20:16 49.47280 8.52346 694 ft 98 kts 88°
2026-05-08 20:16 49.47240 8.53478 938 ft 115 kts 97°
2026-05-08 20:17 49.46652 8.54180 1145 ft 130 kts 178°
2026-05-08 20:17 49.45659 8.54207 1156 ft 152 kts 180°
2026-05-08 20:17 49.45171 8.53294 1322 ft 127 kts 288°
2026-05-08 20:17 49.45287 8.51956 1243 ft 125 kts 273°
2026-05-08 20:18 49.45364 8.50565 1149 ft 136 kts 276°
2026-05-08 20:18 49.45399 8.49176 1121 ft 115 kts 275°
2026-05-08 20:18 49.45743 8.48287 1133 ft 102 kts 324°
2026-05-08 20:18 49.46404 8.47951 1031 ft 101 kts 353°
2026-05-08 20:19 49.47090 8.48034 835 ft 99 kts 18°
2026-05-08 20:19 49.47404 8.48790 784 ft 89 kts 90°
2026-05-08 20:19 49.47328 8.49800 490 ft 100 kts 90°
2026-05-08 20:19 49.47293 8.50863 314 ft 95 kts 95°
2026-05-08 20:20 49.47259 8.51892 425 ft 100 kts 92°
2026-05-08 20:20 49.47258 8.52992 787 ft 108 kts 87°
2026-05-08 20:20 49.47180 8.54061 1216 ft 101 kts 160°
2026-05-08 20:20 49.46478 8.54026 1211 ft 102 kts 187°
2026-05-08 20:21 49.45790 8.53927 1141 ft 106 kts 187°
2026-05-08 20:21 49.45182 8.53575 1274 ft 86 kts 244°
2026-05-08 20:21 49.45219 8.52542 1208 ft 112 kts 288°
2026-05-08 20:21 49.45432 8.51393 1133 ft 109 kts 283°
2026-05-08 20:22 49.45569 8.50355 1082 ft 100 kts 275°
2026-05-08 20:22 49.45630 8.49384 1077 ft 88 kts 278°
2026-05-08 20:22 49.45737 8.48427 962 ft 93 kts 280°
2026-05-08 20:22 49.45821 8.47813 982 ft 90 kts 282°
2026-05-08 20:23 49.46136 8.46686 971 ft 90 kts 347°
2026-05-08 20:23 49.46774 8.46833 913 ft 95 kts 12°
2026-05-08 20:23 49.47347 8.47191 932 ft 84 kts 52°
2026-05-08 20:23 49.47449 8.47591 296 ft 0 kts 160°